Wind_Speed
71 74 74 78 76 78 75 71 72 68 64 62 55 51 48 51 52 54 58 59 53 43 41 39 24 24 34 42 53 71 78 85 86 86 84 69 62 79 80 79 80 88 88 90
71 74 74 78 76 73 74 73 68 71 65 63 59 50 50 45 48 52 52 57 52 45 32 25 25 18 23 37 52 59 69 79 81 84 82 82 80 70 76 67 73 77 84 90
70 71 74 78 79 75 73 71 70 68 69 66 62 54 48 47 43 48 52 55 57 51 45 25 14 15 16 27 37 49 66 75 79 78 78 78 69 59 63 58 70 72 73 85
70 71 76 79 81 79 79 74 67 70 67 67 60 57 49 48 46 46 51 51 57 56 50 37 15 11 6 16 29 37 54 68 76 73 74 71 57 59 57 54 56 57 65 72
69 72 75 77 83 83 81 78 72 69 65 64 64 57 46 46 43 45 45 49 51 56 50 40 28 11 6 11 17 32 47 61 72 72 76 66 66 65 68 64 66 56 57 59
70 71 75 79 81 84 81 84 78 79 73 67 64 56 48 44 44 42 42 43 48 50 48 40 26 12 12 3 3 17 40 54 68 70 71 73 68 66 66 68 60 62 56 60
72 73 78 81 85 86 86 88 81 79 78 72 63 53 46 41 42 43 38 39 40 40 47 40 26 17 6 9 6 13 36 58 71 76 74 84 79 75 70 78 71 65 70 65
72 76 79 80 84 87 88 93 91 82 80 77 62 51 46 39 40 39 36 35 36 35 33 39 28 17 17 16 11 19 29 51 60 68 80 90 85 75 78 79 78 73 72 69
70 76 82 81 85 89 90 92 94 87 80 79 64 51 46 39 37 41 36 31 30 32 30 28 30 19 11 17 20 26 31 52 68 73 77 88 92 92 85 83 78 77 73 75
76 79 84 85 86 90 95 94 96 89 82 80 64 52 44 37 35 39 36 32 28 28 29 27 23 25 15 13 17 19 36 52 62 73 79 82 90 86 92 87 80 80 79 79
80 84 85 90 90 94 97 101 96 87 86 80 62 48 42 36 37 37 37 35 31 29 28 27 24 23 20 18 20 21 24 34 47 63 75 82 85 90 94 83 80 83 83 84
85 90 86 91 92 92 98 100 93 87 90 83 59 42 41 36 36 39 38 35 32 33 31 30 30 26 23 20 21 26 30 34 39 52 63 67 76 78 99 93 86 89 91 90
90 93 88 95 96 94 99 99 95 92 85 83 65 46 40 40 38 41 39 35 33 35 35 36 34 34 32 29 26 25 31 40 45 48 60 66 75 89 95 105 98 95 94 95
96 94 93 98 100 100 103 96 95 90 83 77 70 47 42 41 42 43 43 44 37 37 39 41 42 39 37 37 37 36 36 37 44 55 61 70 75 80 82 90 104 111 105 105
99 95 95 96 99 99 98 99 92 89 84 79 67 49 45 43 44 46 49 50 45 44 44 47 46 45 45 43 44 46 47 47 46 49 59 75 80 84 86 95 96 100 113 121
97 99 100 96 102 97 92 96 90 90 87 77 68 51 47 43 42 46 48 49 51 51 53 52 50 50 50 51 52 54 58 59 60 60 63 65 73 83 95 93 96 99 104 110
98 103 103 99 103 93 90 94 95 90 87 75 70 55 47 43 42 44 48 53 55 56 58 58 58 58 58 58 60 60 63 66 67 67 70 73 76 81 87 94 98 109 115 112
106 110 107 106 101 94 92 98 93 90 84 77 73 56 45 42 41 45 52 58 59 57 58 59 61 62 64 66 64 65 67 70 74 77 78 79 81 85 89 93 96 103 109 116
108 111 108 105 103 96 98 96 95 91 86 85 79 55 46 42 40 43 49 55 57 58 59 62 65 69 72 73 76 77 77 78 81 84 87 89 91 92 96 100 104 107 110 115
110 108 106 110 105 99 98 100 97 96 92 93 84 64 48 45 46 47 47 50 56 61 65 70 73 76 77 76 72 73 75 76 80 84 87 91 93 95 98 101 104 110 115 120
106 109 105 103 102 95 98 100 99 97 96 99 86 71 61 56 48 47 49 54 57 57 56 56 59 62 65 70 72 74 78 80 81 82 83 85 87 90 94 98 102 106 110 114
109 106 103 103 98 95 95 99 98 101 102 95 81 74 65 63 61 59 52 53 55 55 57 61 65 70 73 72 74 78 81 84 86 88 89 91 94 95 97 99 102 103 106 110
102 105 104 99 102 104 107 107 100 98 101 95 84 74 70 67 64 64 57 58 59 65 67 72 73 76 79 79 80 83 85 87 89 91 93 95 98 100 100 100 102 104 107 109
107 105 101 106 107 109 120 102 97 96 98 96 88 76 71 68 66 63 63 62 68 71 71 76 79 83 85 84 87 88 90 91 93 94 96 98 99 99 100 101 101 101 103 103
104 104 106 109 111 112 111 97 98 98 96 95 86 82 76 74 72 70 69 73 75 78 81 83 87 88 90 91 94 94 95 95 96 96 96 96 95 95 95 95 96 95 97 97
108 108 108 110 113 113 108 95 96 92 93 86 82 80 77 74 73 76 77 81 82 83 85 88 90 92 93 97 98 98 96 95 94 93 94 94 93 93 91 88 88 85 85 87
Wind_Direction
4 3 5 6 4 4 5 3 360 0 358 355 354 356 357 357 359 360 355 354 350 351 329 317 293 266 237 229 222 218 218 218 218 218 220 214 226 227 228 231 232 231 231 233
359 359 1 2 360 360 2 1 359 356 356 352 351 350 351 352 353 354 354 352 349 352 335 317 308 301 242 224 220 218 215 218 215 213 217 218 219 224 227 237 237 236 232 230
355 355 357 358 359 358 357 355 356 354 353 350 349 344 342 346 348 349 352 351 351 359 1 342 319 294 246 228 222 217 212 211 210 208 210 216 214 216 216 216 238 241 239 234
352 352 355 353 354 355 353 352 349 349 350 347 344 341 336 339 343 346 347 351 354 359 360 358 359 333 240 226 214 215 212 207 206 203 206 211 201 209 213 222 237 239 239 239
350 350 350 349 350 351 351 349 347 346 344 344 340 335 333 333 336 341 342 346 355 357 3 358 1 63 71 201 214 208 205 205 201 198 201 192 195 202 207 220 225 229 231 237
347 346 346 348 349 347 348 349 346 343 343 338 337 331 326 326 330 334 336 344 350 353 1 3 360 359 45 85 157 211 197 195 194 196 198 191 194 198 205 215 218 223 228 231
344 345 344 347 347 346 344 345 343 343 342 340 333 325 321 320 323 327 330 338 342 352 353 6 3 340 49 81 138 166 180 188 193 202 189 196 197 203 212 211 215 223 226 228
339 342 342 343 345 344 341 345 343 341 342 339 330 319 314 315 315 323 321 328 331 341 352 354 7 344 311 137 165 171 182 191 199 199 197 201 202 210 212 214 219 221 225 224
337 338 340 341 341 342 342 340 341 339 342 340 329 314 309 306 308 313 316 321 323 326 338 347 351 355 291 276 230 202 189 190 198 202 205 207 212 217 218 219 221 218 219 225
337 335 338 339 339 341 341 339 341 339 338 339 331 311 302 301 300 303 308 308 310 315 319 328 335 337 330 275 257 226 222 203 206 207 209 213 215 221 219 218 225 225 225 227
337 336 338 339 338 338 340 341 340 337 336 337 338 313 297 294 291 296 299 299 299 303 305 307 313 315 314 303 268 250 231 230 231 223 215 216 218 220 217 221 227 226 227 231
335 336 336 335 336 336 336 341 338 336 336 336 336 309 295 286 284 288 289 287 287 293 293 295 296 294 291 283 280 258 251 241 238 239 233 232 229 228 224 225 229 226 228 230
333 335 335 334 336 334 333 338 337 336 337 337 332 318 295 285 276 280 284 279 275 281 285 284 282 283 281 274 269 265 263 250 243 240 237 232 228 229 228 228 230 229 230 231
333 332 331 333 333 333 333 333 333 335 336 338 334 315 297 282 275 270 274 278 273 272 273 276 276 273 273 271 268 264 257 252 250 243 237 240 240 237 237 235 235 233 233 235
330 330 330 328 330 329 328 330 330 333 336 337 336 314 299 287 273 270 269 271 271 272 273 270 271 272 271 266 265 265 264 255 250 247 244 240 241 245 245 244 239 239 239 239
327 328 329 326 327 326 325 326 330 331 333 338 338 321 306 291 277 273 272 267 266 267 269 273 274 273 268 268 266 263 262 261 259 256 250 248 246 247 246 247 247 247 246 247
323 324 325 323 325 324 319 322 325 329 336 339 337 326 306 298 281 273 271 271 270 270 270 271 273 274 275 275 268 264 261 260 260 261 259 258 254 249 247 246 248 250 249 251
322 322 322 322 322 321 318 321 327 331 336 339 337 325 312 299 286 276 273 277 283 277 276 275 275 276 277 279 279 275 271 268 267 266 264 261 259 257 256 253 252 250 249 249
318 320 319 317 319 319 318 323 326 333 335 336 336 325 318 301 289 283 281 280 279 273 271 272 273 274 276 278 278 276 273 272 269 267 264 264 263 259 256 253 252 252 251 250
316 317 316 317 318 318 319 324 328 330 332 332 332 328 321 311 300 292 283 278 277 277 276 273 274 276 277 277 277 275 273 274 275 272 270 269 268 266 265 263 259 255 253 252
313 314 315 313 316 320 322 325 327 328 328 330 327 326 320 317 311 306 298 293 292 288 283 283 286 289 286 283 281 281 280 281 281 280 276 274 272 271 269 267 264 263 261 260
311 312 313 315 318 322 323 324 325 325 327 327 324 320 317 316 315 314 301 298 298 295 295 297 293 293 293 290 289 287 286 287 286 285 284 281 279 277 275 273 270 268 266 263
308 311 316 316 317 318 319 318 318 321 322 323 320 315 311 312 312 311 305 303 301 301 299 300 300 299 297 296 294 293 292 290 289 287 285 283 280 278 276 275 273 272 270 268
311 312 314 313 315 315 318 316 314 316 317 320 318 311 309 309 311 308 310 309 307 304 302 302 301 302 300 297 295 294 294 293 290 288 285 283 282 282 280 278 277 275 274 272
308 308 309 311 314 313 316 314 314 314 315 318 312 308 308 309 308 309 308 308 309 307 304 302 303 302 301 299 299 298 297 294 291 290 289 288 286 284 283 282 280 278 276 274
306 305 307 309 310 312 315 313 312 312 314 313 306 304 305 306 307 307 307 309 307 305 305 304 303 302 301 301 300 299 297 295 294 293 291 290 289 287 286 284 282 280 278 277
Height
10701 10693 10683 10674 10665 10657 10646 10635 10624 10617 10606 10597 10589 10581 10573 10565 10558 10550 10537 10525 10516 10503 10487 10472 10469 10469 10470 10475 10482 10485 10502 10513 10535 10557 10574 10602 10599 10614 10624 10631 10638 10648 10657 10662
10699 10690 10682 10674 10665 10655 10646 10637 10626 10610 10605 10595 10587 10579 10571 10564 10555 10547 10537 10526 10513 10501 10483 10471 10463 10463 10464 10465 10467 10479 10493 10505 10523 10544 10564 10582 10594 10608 10616 10628 10628 10634 10643 10650
10698 10690 10680 10671 10663 10654 10645 10635 10625 10617 10603 10592 10581 10574 10568 10561 10553 10545 10535 10524 10510 10497 10482 10471 10462 10460 10459 10462 10467 10475 10480 10492 10511 10532 10552 10568 10589 10595 10605 10607 10612 10622 10630 10635
10696 10686 10677 10667 10660 10651 10641 10632 10623 10613 10604 10592 10583 10573 10563 10556 10548 10540 10530 10521 10506 10494 10482 10474 10463 10459 10457 10460 10464 10468 10477 10487 10502 10523 10542 10557 10577 10586 10594 10603 10605 10610 10616 10622
10694 10685 10676 10665 10655 10646 10638 10626 10617 10610 10602 10594 10581 10571 10562 10554 10547 10539 10532 10520 10509 10496 10487 10476 10470 10463 10460 10459 10461 10461 10470 10485 10502 10518 10529 10550 10560 10567 10579 10582 10590 10595 10602 10605
10690 10682 10672 10663 10653 10641 10632 10624 10614 10603 10594 10586 10578 10568 10559 10552 10545 10539 10531 10521 10511 10501 10493 10482 10474 10470 10465 10463 10466 10467 10472 10489 10502 10515 10528 10544 10549 10557 10562 10566 10573 10583 10587 10590
10684 10677 10667 10657 10647 10637 10627 10619 10612 10601 10587 10575 10567 10560 10554 10546 10540 10534 10529 10521 10514 10507 10496 10491 10483 10476 10473 10472 10471 10472 10476 10486 10498 10502 10523 10527 10533 10538 10542 10549 10558 10563 10569 10578
10676 10671 10662 10653 10644 10632 10619 10609 10602 10594 10583 10569 10556 10549 10544 10539 10535 10531 10524 10520 10514 10509 10503 10493 10492 10485 10480 10479 10478 10479 10482 10490 10500 10510 10514 10517 10524 10530 10531 10537 10544 10549 10559 10565
10675 10665 10657 10646 10636 10627 10617 10604 10593 10583 10574 10561 10547 10539 10535 10531 10528 10525 10520 10516 10512 10508 10502 10499 10491 10490 10485 10483 10485 10481 10485 10485 10493 10499 10504 10510 10513 10515 10517 10525 10532 10536 10538 10544
10670 10658 10649 10639 10628 10619 10610 10597 10587 10576 10567 10555 10540 10528 10524 10522 10519 10518 10513 10510 10506 10504 10501 10497 10494 10489 10488 10485 10484 10487 10488 10485 10488 10493 10494 10499 10503 10508 10511 10515 10521 10525 10530 10531
10664 10651 10641 10631 10620 10610 10599 10589 10577 10568 10556 10545 10534 10521 10514 10512 10510 10509 10506 10502 10499 10497 10495 10494 10492 10489 10486 10484 10483 10483 10485 10489 10491 10492 10489 10492 10493 10494 10499 10503 10504 10509 10512 10516
10654 10647 10634 10623 10612 10597 10586 10581 10568 10556 10547 10533 10522 10512 10503 10502 10500 10499 10497 10494 10491 10488 10487 10485 10484 10484 10483 10480 10478 10478 10478 10479 10480 10482 10485 10488 10490 10490 10491 10489 10491 10495 10494 10497
10644 10634 10628 10612 10605 10593 10575 10566 10560 10551 10539 10522 10509 10504 10495 10491 10489 10487 10485 10485 10483 10479 10478 10476 10476 10475 10474 10474 10474 10472 10471 10472 10471 10471 10471 10472 10473 10473 10472 10474 10476 10478 10477 10477
10633 10620 10610 10601 10591 10579 10565 10554 10546 10535 10527 10519 10499 10494 10485 10480 10478 10476 10473 10472 10472 10469 10467 10465 10463 10463 10463 10463 10462 10462 10462 10460 10459 10460 10459 10459 10458 10458 10457 10458 10459 10460 10459 10458
10619 10611 10602 10586 10579 10568 10552 10546 10533 10523 10512 10504 10492 10482 10475 10468 10466 10464 10462 10460 10458 10456 10454 10452 10451 10450 10449 10448 10447 10447 10445 10445 10444 10443 10442 10443 10442 10440 10439 10437 10435 10435 10436 10435
10602 10597 10592 10578 10567 10556 10542 10531 10522 10511 10499 10489 10479 10470 10463 10455 10451 10450 10448 10446 10444 10442 10439 10437 10437 10436 10434 10433 10431 10430 10428 10426 10425 10423 10422 10419 10418 10416 10416 10413 10412 10411 10409 10407
10588 10582 10577 10568 10559 10548 10535 10524 10516 10502 10486 10475 10465 10457 10450 10445 10440 10436 10434 10432 10430 10427 10425 10423 10421 10418 10416 10414 10411 10408 10406 10405 10403 10400 10397 10394 10392 10389 10387 10384 10382 10382 10380 10376
10570 10561 10554 10550 10540 10534 10517 10507 10500 10489 10475 10466 10456 10443 10436 10430 10426 10423 10421 10418 10415 10412 10409 10407 10404 10401 10397 10393 10390 10387 10384 10380 10375 10372 10370 10367 10364 10360 10356 10353 10349 10347 10343 10340
10547 10540 10533 10523 10523 10516 10499 10490 10481 10471 10460 10453 10446 10434 10425 10420 10414 10411 10407 10403 10399 10395 10391 10387 10383 10379 10376 10372 10367 10362 10357 10353 10348 10343 10338 10334 10330 10327 10324 10319 10316 10314 10309 10305
10536 10524 10514 10502 10497 10492 10476 10468 10458 10450 10443 10435 10427 10420 10413 10407 10402 10396 10390 10385 10381 10377 10373 10368 10364 10359 10353 10347 10340 10335 10330 10326 10320 10314 10308 10304 10301 10295 10289 10285 10282 10279 10275 10269
10518 10509 10497 10484 10475 10473 10457 10448 10440 10431 10425 10416 10407 10401 10394 10389 10383 10378 10374 10369 10363 10357 10352 10346 10340 10334 10327 10320 10313 10307 10301 10295 10287 10280 10274 10269 10264 10260 10254 10249 10244 10239 10233 10229
10504 10488 10480 10467 10456 10449 10442 10432 10423 10413 10405 10398 10391 10383 10376 10370 10364 10359 10353 10348 10342 10337 10331 10324 10316 10309 10300 10294 10286 10279 10273 10265 10256 10248 10240 10235 10229 10222 10216 10210 10202 10197 10193 10187
10489 10472 10459 10449 10441 10429 10422 10415 10408 10400 10390 10381 10372 10364 10358 10352 10345 10339 10333 10328 10322 10316 10308 10299 10290 10281 10273 10265 10258 10249 10241 10233 10223 10213 10204 10196 10188 10179 10173 10168 10161 10155 10149 10144
10468 10452 10443 10428 10424 10411 10403 10393 10386 10379 10370 10360 10350 10342 10335 10330 10323 10318 10310 10304 10298 10291 10282 10273 10263 10252 10243 10235 10226 10219 10209 10199 10187 10176 10166 10157 10149 10139 10132 10125 10119 10113 10105 10100
10444 10434 10424 10413 10405 10392 10383 10373 10366 10357 10348 10337 10328 10320 10313 10307 10301 10294 10287 10281 10273 10265 10256 10246 10235 10224 10213 10203 10191 10182 10174 10162 10149 10138 10128 10117 10108 10099 10091 10084 10077 10072 10063 10058
10422 10414 10405 10394 10384 10372 10362 10351 10342 10334 10326 10316 10307 10298 10291 10285 10278 10271 10263 10256 10247 10237 10228 10217 10206 10195 10183 10171 10156 10145 10133 10122 10113 10101 10089 10080 10071 10061 10052 10045 10035 10031 10026 10016